Starlink 4302

operational
NORAD ID: 53481 Int'l Des: 2022-099 Owner: SPXS Country: US Constellation: starlink
LEOCIRCULARRETROGRADESSO

Über Starlink 4302

Beschreibung wird geladen...

Live-Position

3D-Globus wird geladen...

Nächste Überflüge

Höhenverlauf

Altitude vs Time

uPlot chart will show altitude changes over time

Zweizeiliger Elementsatz

1 53481U 22099S 25305.59775017 -.00000008 00000-0 39264-5 0 9997
2 53481 97.6046 64.8125 0003009 82.8679 277.2887 15.01261730176767
Epoch: 1. Nov. 2025 • Age: 13 hours

Aktueller Status

Höhe 574.3 km
Geschwindigkeit 7.58 km/s
Subsatellitenpunkt 80.00°N, 77.87°W
Startdatum 12. Aug. 2022
Alter 3.2 years
Typ internet

Technische Details

Klassifizierung Payload
Masse 300.00 kg
Trockenmasse 275.00 kg
Gesamtmasse 300.00 kg
Länge 0.20 m
Durchmesser 2.80 m
Spannweite 9.00 m
Form Box + pan
Hersteller SPXS
Bus-Typ Starlink
Phasenstatus In Orbit
Besitzer/Staat SPXS/US

Große Konstellationen

Loading constellations...